Birchwood Airport Birchwood US
ICAO: PABV
IATA:
Category: Medium
Scheduled Services:

Elevation: 83 ft
TransAlt. 18000 ft.

Airport Communications:
AWOS 3:135.55
ANCHORAGE CNTR:132.3
CTAF/UNICOM:123

PABV Zoom In..

Runways:

(A) RW 02L length 4010 ft width 100 ft
---- / hdg 14

(B) RW 02R length 2200 ft width 50 ft
---- / hdg 14

(C) RW 20L length 2200 ft width 50 ft
---- / hdg 194

(D) RW 20R length 4010 ft width 100 ft
---- / hdg 194

Location; PABV
Day. 21 / Time. 05.56 Zulu
* Altimeter: 30.34
* Temperature: 6/° c. 42.8°f.
* Wind from: 240° Speed 03 kn.
Dewpoint: //° c.
Visibility: 10 Statute Miles.
Clouds: Clear (automated report).

PABV 210556Z AUTO 24003KT 10SM CLR 19/11 A3034 RMK AO2 SLP281 6//// T01890111 10189 20139 55000 PNO $


Wind From 240°
Speed 03 kn.

 
 
jpsmedia.com for Web Design worldairports.se 2018   terms of use